Wind_Speed
89 84 84 80 83 80 77 78 78 75 75 77 75 76 75 75 77 75 74 72 74 75 74 64 61 56 54 49 50 44 38 36 30 27 27 28 35 47 49 50 48 56 57 56 55 55 55 51 49 49 50 52 54 55
87 88 88 84 82 79 79 77 80 75 72 74 72 70 71 71 76 75 71 76 75 74 70 67 59 55 53 51 46 38 35 32 29 26 28 29 31 47 49 50 50 52 57 59 59 58 55 56 56 54 52 53 53 53
90 90 88 88 86 82 79 78 74 75 73 72 73 79 76 78 76 75 76 72 71 73 72 60 57 55 50 45 39 35 31 28 26 24 27 30 33 42 51 53 54 54 54 54 57 58 58 58 58 58 57 56 57 57
91 87 86 86 84 81 77 78 75 75 76 75 75 77 81 75 79 79 77 74 74 74 62 58 55 51 45 42 36 31 26 24 23 23 27 30 31 34 45 50 52 52 52 51 52 53 54 54 56 55 58 61 62 62
91 90 92 90 88 87 85 82 81 79 79 82 84 80 79 79 78 75 73 73 76 68 60 57 51 46 43 38 35 29 23 21 21 23 26 28 30 33 37 44 52 53 53 54 53 52 51 51 50 51 56 62 65 66
92 92 91 89 88 90 87 87 89 86 88 87 83 85 84 75 75 77 78 72 65 62 58 53 50 45 42 38 31 24 20 20 20 22 24 24 27 31 33 37 45 49 55 55 55 55 54 52 50 49 51 55 59 63
86 93 90 90 91 91 91 90 88 88 88 87 82 84 88 82 82 76 69 64 62 58 54 51 49 45 41 34 26 21 19 18 18 20 21 22 25 28 29 30 34 42 48 53 54 52 51 50 49 47 49 50 53 54
83 85 85 86 87 89 90 88 87 85 84 83 81 79 80 77 71 72 66 59 55 55 52 47 46 44 35 28 23 19 17 16 16 17 18 19 21 23 23 24 28 31 34 39 43 47 46 44 43 43 45 48 49 50
75 77 79 80 80 82 86 88 84 84 80 76 77 79 75 68 64 61 53 52 53 51 45 43 42 36 29 24 20 18 16 15 15 17 18 18 18 19 21 25 26 29 30 31 32 33 36 39 43 44 45 47 48 49
70 70 71 71 73 74 76 78 76 75 73 71 71 69 66 62 59 53 50 51 49 47 41 40 36 29 23 20 18 17 16 15 16 16 16 17 18 21 23 24 25 27 28 29 30 32 34 38 40 43 46 48 50 51
65 66 67 68 69 69 70 70 67 66 66 69 71 65 60 57 56 50 48 49 48 44 36 35 30 25 20 19 18 17 15 14 13 15 16 16 17 18 20 22 23 25 27 28 29 31 32 35 37 40 42 45 47 49
60 62 63 64 65 65 65 64 63 65 66 65 64 61 58 53 47 45 49 48 43 33 31 29 24 20 18 18 16 15 13 13 13 16 16 16 17 18 20 22 24 25 26 27 28 29 31 33 36 38 40 43 46 48
57 58 59 59 61 62 62 63 62 61 61 59 57 53 50 48 45 47 47 40 29 26 26 23 20 18 17 16 14 13 11 12 13 13 14 14 15 16 17 18 19 21 22 24 24 25 27 29 31 34 38 41 44 47
49 50 51 54 55 54 55 55 54 56 56 54 52 46 41 42 41 42 35 27 26 27 23 20 18 18 17 14 11 10 10 9 9 10 10 10 10 10 10 11 12 14 16 18 20 23 25 27 30 33 36 39 42 45
42 43 43 42 42 43 44 45 47 47 47 45 41 37 37 37 37 31 24 25 27 23 21 20 19 17 15 11 8 6 6 4 5 4 5 5 5 6 7 8 10 11 12 14 15 18 21 24 28 31 35 39 43 46
37 37 36 35 36 37 38 39 41 39 37 35 35 36 35 32 26 23 25 26 22 23 22 22 19 17 13 9 6 5 4 3 5 5 6 6 6 4 2 1 3 7 11 14 18 21 25 29 32 35 38 43 46 49
36 35 36 36 35 33 32 31 32 32 32 32 32 33 31 25 24 27 27 25 25 24 24 22 20 17 13 11 10 9 9 8 10 8 7 6 4 0 3 6 8 11 15 19 21 23 28 32 35 38 41 45 48 50
31 32 33 33 32 31 29 29 29 30 31 32 32 27 24 28 31 29 27 27 26 26 25 23 20 18 15 15 14 13 11 10 5 6 3 1 1 4 6 10 13 15 18 22 26 29 33 37 38 41 44 48 48 49
29 31 32 32 31 30 31 31 32 32 31 27 24 27 31 33 30 28 29 29 29 28 26 23 20 18 16 16 16 13 11 6 4 3 2 1 5 8 10 14 18 22 25 28 34 37 39 37 40 42 44 45 47 49
26 27 28 28 27 26 27 29 29 26 24 25 30 33 32 31 29 29 30 30 29 27 24 22 20 19 16 18 17 12 7 6 5 3 3 5 8 12 16 20 24 27 31 35 39 42 42 43 46 48 49 50 49 50
25 26 27 28 28 27 25 21 22 26 29 30 32 30 31 31 31 31 30 28 27 24 23 22 20 19 19 18 16 12 8 6 4 5 6 9 12 17 22 26 30 34 38 41 45 47 48 48 47 48 49 51 50 50
29 28 27 25 22 22 23 26 28 30 30 29 30 31 32 32 32 30 28 27 26 23 22 21 21 19 18 17 16 12 7 5 5 6 8 13 18 23 28 30 34 39 43 45 47 49 50 51 52 52 52 52 50 47
21 22 22 22 24 25 27 29 28 30 30 31 32 32 33 31 29 28 27 25 24 23 21 21 21 21 18 16 14 9 6 4 5 8 13 18 23 29 33 36 40 43 48 51 52 54 55 56 56 56 55 52 49 48
21 23 24 24 25 26 29 30 31 31 32 30 30 30 28 28 26 26 25 25 24 23 23 23 22 19 17 14 10 7 4 4 8 12 17 23 28 33 37 41 43 47 51 53 56 57 58 59 59 57 55 54 52 50
26 27 27 29 30 30 30 30 30 29 29 29 27 26 27 25 25 27 29 27 24 24 25 24 22 19 15 13 9 4 3 7 11 16 21 26 32 37 41 46 49 51 54 57 58 60 61 61 59 57 55 55 52 49
21 23 24 25 25 26 27 29 31 28 25 23 24 25 27 27 28 31 30 26 24 27 24 23 20 16 13 8 4 4 7 10 15 20 26 32 38 42 47 52 55 56 58 60 62 61 61 59 58 57 55 52 50 49
25 26 27 27 29 29 30 30 30 31 31 30 28 28 31 33 35 33 30 28 27 25 23 19 16 12 8 5 5 7 11 15 20 26 31 36 42 47 51 54 55 57 58 60 61 61 59 59 58 57 53 51 50 48
24 26 27 28 29 29 30 30 31 32 31 30 30 34 37 34 32 31 31 29 27 23 19 15 12 9 7 6 8 11 16 21 26 31 37 42 47 51 55 56 59 59 60 60 60 59 59 58 56 54 53 51 48 46
26 26 26 26 25 26 27 28 29 28 27 26 29 30 30 29 31 30 29 25 21 18 15 12 10 8 8 9 12 16 21 26 31 36 41 46 51 55 58 59 60 60 61 61 59 59 59 56 54 53 52 50 48 46
24 25 26 27 27 28 29 29 29 29 30 31 31 31 30 30 28 26 23 20 17 15 13 10 8 8 9 13 17 21 26 31 36 41 46 51 55 58 60 60 60 61 60 59 59 59 57 55 54 52 50 49 48 48
26 28 29 30 32 33 34 33 33 32 32 32 32 30 29 26 24 22 19 17 14 11 9 8 9 10 14 18 22 27 31 36 41 45 49 54 57 59 60 60 60 59 59 59 59 57 55 54 53 51 49 48 48 47
27 29 31 31 32 31 30 31 31 32 31 29 28 27 24 22 20 18 15 12 10 8 8 10 12 15 19 24 28 32 37 41 45 49 53 57 59 60 59 59 58 58 58 58 56 54 54 53 51 49 49 49 47 47
29 29 28 29 30 31 32 32 30 29 28 25 24 22 20 18 16 13 10 9 9 10 12 13 16 21 25 29 33 37 41 45 49 53 56 59 60 60 58 57 58 58 57 56 54 54 52 50 48 48 48 47 47 47
Wind_Direction
219 221 222 224 228 231 235 239 243 246 251 254 258 261 266 269 274 277 282 287 292 296 299 299 298 299 303 304 306 304 295 286 274 262 250 237 222 221 211 213 212 211 214 217 218 216 218 223 222 220 221 224 228 232
221 222 224 227 229 231 234 239 242 244 249 253 259 264 268 271 274 277 283 288 291 296 298 297 299 300 303 305 301 300 292 279 267 256 246 239 222 225 218 213 215 215 218 220 224 225 226 224 226 228 228 230 231 234
222 224 225 224 229 232 236 238 241 245 248 252 259 265 267 271 274 277 283 288 291 296 296 296 298 301 304 300 300 296 287 274 264 255 249 241 229 226 225 215 215 218 220 221 226 231 233 233 234 234 234 233 234 237
222 223 225 226 230 234 235 237 241 246 251 256 259 263 266 272 276 280 283 286 291 295 293 295 299 299 299 300 301 295 282 270 262 254 246 241 236 228 228 222 219 220 222 224 226 230 234 237 239 242 241 240 241 243
223 226 227 228 231 235 238 242 245 249 251 255 260 266 269 273 277 280 282 286 291 289 293 295 297 298 300 302 303 294 278 271 264 252 243 239 237 232 228 226 223 224 222 223 226 231 234 235 236 238 240 241 243 245
224 226 229 232 234 237 239 243 246 248 253 258 261 265 270 273 276 276 283 285 289 291 293 297 296 300 300 303 299 288 279 272 259 247 242 240 240 237 235 237 231 233 229 229 230 230 232 234 235 236 237 240 242 245
227 228 233 236 238 239 240 243 247 250 254 258 263 266 270 270 275 278 281 283 287 289 293 296 296 297 300 299 291 282 274 265 256 247 243 240 238 236 235 238 239 239 239 239 238 240 242 243 243 241 242 243 246 250
227 230 234 237 238 240 243 246 248 251 256 260 261 267 269 269 273 278 279 282 285 289 291 293 291 295 296 292 283 274 266 260 251 247 245 243 241 240 238 241 248 250 249 249 253 253 257 257 255 249 246 247 250 253
227 229 233 236 238 239 242 246 251 253 255 259 262 265 267 268 272 274 278 282 285 286 285 286 286 287 287 281 274 269 264 257 251 245 242 242 241 242 241 239 240 244 245 247 249 251 253 255 255 256 255 255 257 258
229 231 233 235 238 239 242 245 248 251 253 255 259 262 265 270 272 273 279 283 282 279 278 279 277 279 274 265 260 256 256 254 250 248 246 241 239 238 243 247 250 252 254 253 251 250 249 251 253 254 255 257 259 262
227 230 233 236 239 241 243 246 248 252 255 257 260 263 264 267 271 276 277 276 274 273 272 268 270 266 258 252 247 244 246 246 244 246 246 248 247 246 246 248 251 251 253 255 255 255 254 254 255 256 258 260 263 264
225 229 231 233 236 239 241 244 247 249 251 254 256 259 262 266 269 273 274 270 266 266 263 261 257 250 242 239 237 237 237 237 236 240 239 239 241 242 243 245 249 253 256 257 258 260 262 264 266 268 269 270 272 274
222 225 228 231 234 237 240 242 245 247 250 253 255 257 260 263 268 267 262 257 261 257 249 246 239 232 229 226 229 231 230 233 232 233 236 241 242 241 242 243 248 254 259 264 268 270 271 272 272 271 271 271 271 272
219 221 225 228 231 234 236 239 242 245 246 249 251 253 253 256 255 251 249 249 240 234 232 226 219 217 214 218 224 224 217 222 219 232 240 242 243 247 249 253 254 252 253 254 258 260 262 263 265 268 271 273 275 276
213 215 218 221 224 227 230 232 233 235 237 239 241 242 241 239 238 239 238 228 227 226 220 209 208 204 207 208 203 192 199 211 209 222 216 218 222 224 227 234 242 249 258 266 274 279 282 284 285 286 285 285 284 284
208 210 212 214 216 219 221 223 224 226 227 228 228 227 227 227 226 219 216 216 214 211 202 201 195 196 195 186 193 180 167 172 143 130 136 149 156 156 147 337 301 294 292 290 288 287 285 285 286 287 288 287 287 287
199 200 202 204 206 210 213 215 215 213 213 215 216 217 217 209 204 206 205 202 201 196 195 191 188 190 184 181 174 151 140 137 132 128 121 110 108 80 286 286 290 291 289 292 294 295 298 299 299 299 297 296 293 291
190 193 195 198 199 201 201 202 201 202 203 204 205 206 194 191 199 197 195 195 191 192 189 185 186 185 185 179 160 143 133 133 121 117 140 204 257 293 301 301 302 305 310 312 312 311 312 309 305 304 303 300 297 297
185 188 190 191 192 193 191 190 192 195 197 194 184 178 186 193 192 189 188 188 188 188 187 184 182 181 181 174 156 145 142 148 157 215 223 299 319 313 315 319 323 324 322 319 318 317 316 312 310 308 307 304 301 298
180 181 182 184 187 189 192 192 189 184 178 174 175 182 187 187 183 182 185 188 188 185 184 178 180 179 173 167 149 148 158 182 215 228 286 303 312 319 325 326 324 322 321 321 320 321 320 318 316 316 314 311 307 304
168 173 178 182 184 187 188 183 173 165 167 172 180 180 179 180 178 179 183 185 185 182 175 179 182 176 171 161 151 159 181 202 249 277 296 311 319 323 323 325 326 325 324 323 323 324 323 321 319 316 314 313 312 312
169 171 173 174 175 168 166 164 164 167 168 170 171 173 173 174 178 180 181 180 177 173 177 178 175 168 167 156 159 170 190 236 264 300 313 321 323 327 328 326 324 324 322 325 326 325 323 322 321 319 319 318 317 316
159 159 159 157 158 159 160 159 162 167 166 166 171 175 176 177 180 181 178 172 165 169 175 175 166 160 167 164 162 179 202 244 291 316 323 326 328 329 329 326 326 326 326 327 328 326 325 323 323 323 321 321 320 319
147 147 146 151 153 154 156 159 163 166 169 171 175 176 176 175 173 171 165 162 164 167 170 166 161 163 164 161 170 185 220 285 313 321 326 328 328 327 328 327 328 328 328 329 327 325 324 323 323 324 324 324 324 322
149 149 150 149 151 153 156 160 164 166 170 172 168 167 167 169 166 161 161 165 165 165 166 165 162 163 166 168 173 196 271 306 317 323 329 330 331 332 329 329 330 330 329 327 326 325 324 324 325 325 325 325 324 322
140 142 146 146 147 153 157 159 164 164 161 161 162 163 167 163 160 163 165 163 167 168 165 161 161 167 165 161 177 256 293 310 320 327 331 333 332 331 331 331 330 329 329 327 326 324 324 325 325 325 326 326 324 323
146 148 147 148 150 152 156 161 165 166 166 166 164 165 162 160 161 166 166 166 168 166 162 164 166 158 153 185 246 285 306 318 323 328 328 329 330 332 331 329 327 327 326 325 325 325 325 326 326 326 326 326 325 323
152 153 154 156 157 159 161 164 166 167 167 166 166 166 167 167 166 165 165 163 162 162 162 160 157 171 198 242 280 303 315 323 325 325 326 328 330 329 329 328 327 327 326 325 325 325 326 326 327 327 326 326 325 324
157 159 155 155 156 157 158 160 161 161 161 161 160 161 163 165 163 160 156 156 157 161 161 167 183 209 246 274 300 317 322 324 326 326 328 328 329 329 328 327 327 326 326 325 326 326 327 327 327 327 326 325 324 324
155 153 151 151 149 148 147 148 148 149 150 153 156 157 156 153 154 154 154 156 159 165 177 192 222 252 283 302 312 316 320 323 325 326 327 328 330 329 328 327 326 326 325 325 326 326 327 327 328 328 327 326 325 325
150 150 151 152 150 149 147 149 150 152 152 152 152 153 151 152 153 156 160 164 171 183 208 237 265 286 302 311 316 319 321 323 324 326 327 328 328 327 327 326 325 325 325 326 327 328 328 328 328 328 327 326 326 326
152 151 151 150 150 151 150 150 151 151 153 152 152 153 157 157 159 163 170 182 199 221 249 269 287 301 309 315 318 319 320 321 324 326 326 326 326 327 326 326 325 326 327 327 328 328 328 329 329 328 328 328 328 328
154 155 156 155 153 153 153 154 156 157 157 157 159 159 160 165 173 181 196 218 240 257 273 287 297 307 314 318 319 319 320 322 324 325 326 326 326 327 327 326 326 327 328 329 329 329 329 329 329 330 330 330 329 329
Height
10149 10161 10170 10182 10191 10202 10209 10216 10222 10226 10232 10238 10243 10248 10253 10256 10258 10260 10259 10257 10255 10254 10251 10247 10243 10240 10235 10231 10228 10224 10219 10217 10216 10217 10218 10222 10226 10227 10231 10236 10244 10249 10254 10260 10265 10271 10275 10280 10286 10291 10296 10300 10305 10309
10136 10146 10159 10170 10179 10187 10194 10201 10208 10213 10219 10224 10229 10234 10238 10242 10243 10244 10245 10244 10242 10242 10238 10233 10230 10227 10222 10218 10214 10212 10208 10205 10204 10206 10207 10212 10217 10219 10223 10229 10235 10241 10246 10251 10257 10262 10268 10274 10277 10281 10286 10291 10295 10299
10122 10133 10145 10156 10165 10174 10182 10189 10195 10201 10207 10211 10217 10221 10225 10228 10231 10231 10231 10231 10230 10230 10224 10220 10217 10213 10211 10206 10202 10199 10197 10194 10195 10195 10198 10202 10206 10210 10214 10219 10225 10230 10236 10243 10248 10252 10257 10263 10268 10273 10278 10282 10286 10288
10108 10120 10131 10143 10153 10161 10169 10176 10183 10189 10195 10199 10204 10208 10211 10216 10218 10219 10218 10218 10218 10216 10213 10209 10205 10202 10198 10195 10191 10188 10186 10184 10185 10187 10188 10191 10196 10202 10207 10212 10217 10222 10228 10233 10238 10242 10247 10251 10256 10262 10268 10272 10275 10277
10095 10107 10117 10127 10138 10147 10156 10163 10170 10177 10182 10186 10191 10194 10200 10202 10204 10205 10206 10206 10205 10203 10200 10197 10193 10190 10186 10184 10180 10177 10176 10175 10177 10178 10181 10183 10187 10191 10198 10204 10208 10212 10217 10221 10226 10231 10235 10239 10243 10248 10253 10256 10259 10262
10081 10093 10103 10114 10123 10133 10142 10150 10157 10164 10170 10174 10178 10182 10187 10189 10190 10191 10194 10195 10194 10191 10188 10184 10180 10179 10177 10174 10170 10169 10168 10168 10169 10171 10173 10177 10180 10184 10189 10196 10201 10204 10208 10211 10215 10219 10223 10227 10231 10235 10239 10241 10244 10246
10067 10080 10089 10100 10109 10119 10128 10136 10143 10151 10157 10160 10166 10170 10172 10174 10175 10179 10182 10182 10183 10179 10176 10174 10170 10169 10167 10164 10162 10161 10161 10162 10163 10164 10167 10170 10172 10177 10183 10189 10194 10196 10201 10205 10208 10211 10214 10218 10221 10225 10228 10230 10231 10235
10057 10066 10076 10086 10096 10105 10115 10122 10128 10136 10142 10148 10153 10156 10157 10159 10162 10166 10170 10171 10170 10167 10165 10165 10161 10160 10159 10156 10155 10156 10157 10157 10158 10159 10162 10164 10169 10173 10177 10182 10185 10189 10194 10198 10201 10204 10207 10210 10212 10215 10218 10218 10220 10221
10042 10054 10064 10073 10082 10091 10101 10107 10115 10122 10128 10136 10138 10139 10142 10144 10150 10154 10157 10158 10158 10156 10156 10155 10153 10152 10151 10150 10150 10151 10151 10152 10154 10155 10157 10160 10163 10167 10170 10172 10176 10179 10184 10188 10191 10195 10198 10199 10201 10203 10206 10206 10206 10207
10030 10041 10051 10061 10069 10078 10087 10092 10101 10109 10116 10121 10123 10123 10127 10133 10135 10141 10146 10147 10145 10143 10147 10145 10144 10144 10145 10145 10146 10146 10147 10148 10149 10152 10153 10156 10160 10162 10164 10167 10170 10173 10175 10178 10182 10185 10187 10188 10189 10191 10192 10193 10193 10192
10019 10030 10040 10049 10057 10064 10072 10078 10088 10096 10101 10103 10103 10109 10114 10120 10125 10132 10135 10134 10132 10132 10135 10134 10136 10136 10138 10140 10141 10142 10143 10145 10147 10148 10150 10152 10155 10158 10160 10162 10164 10166 10169 10171 10173 10175 10177 10178 10178 10179 10179 10180 10179 10179
10008 10018 10028 10037 10044 10051 10058 10066 10074 10080 10085 10087 10092 10097 10104 10110 10116 10122 10120 10119 10119 10123 10125 10126 10128 10131 10134 10135 10137 10139 10140 10142 10144 10145 10147 10149 10151 10153 10155 10156 10158 10160 10162 10164 10165 10166 10168 10169 10170 10170 10170 10169 10168 10166
9996 10005 10014 10023 10031 10037 10046 10053 10060 10067 10072 10076 10081 10087 10094 10102 10107 10107 10104 10106 10113 10116 10115 10119 10123 10126 10129 10131 10133 10135 10137 10139 10140 10141 10143 10145 10146 10148 10150 10152 10154 10155 10157 10158 10160 10161 10161 10161 10161 10160 10158 10156 10153 10150
9985 9994 10003 10011 10018 10027 10034 10041 10049 10055 10060 10065 10070 10078 10086 10091 10092 10091 10095 10102 10104 10104 10109 10114 10118 10122 10125 10127 10130 10131 10133 10135 10137 10137 10139 10141 10143 10145 10147 10149 10151 10152 10152 10152 10152 10152 10152 10151 10150 10148 10147 10144 10141 10137
9978 9986 9994 10002 10010 10018 10024 10032 10037 10044 10049 10055 10063 10070 10074 10077 10079 10085 10091 10094 10096 10101 10107 10111 10115 10119 10121 10125 10127 10129 10131 10132 10133 10135 10137 10138 10141 10142 10143 10144 10145 10146 10147 10147 10147 10146 10145 10143 10141 10138 10135 10131 10127 10123
9972 9981 9988 9996 10003 10010 10016 10022 10027 10034 10041 10048 10054 10059 10063 10069 10076 10080 10084 10087 10093 10098 10103 10108 10112 10116 10119 10122 10125 10127 10129 10131 10133 10134 10136 10137 10139 10140 10141 10142 10143 10143 10144 10143 10142 10141 10138 10135 10132 10129 10124 10119 10114 10108
9967 9975 9983 9990 9997 10004 10010 10016 10022 10028 10035 10040 10046 10052 10057 10065 10070 10073 10078 10083 10089 10096 10101 10106 10110 10113 10117 10120 10123 10126 10129 10131 10133 10135 10136 10138 10139 10140 10141 10141 10141 10141 10140 10138 10137 10134 10130 10126 10121 10116 10111 10106 10099 10092
9966 9973 9980 9987 9994 9999 10006 10012 10018 10024 10029 10035 10040 10047 10055 10060 10063 10068 10075 10082 10088 10094 10099 10104 10108 10112 10116 10119 10123 10126 10129 10132 10134 10135 10137 10138 10139 10139 10139 10139 10138 10137 10135 10132 10129 10125 10121 10116 10110 10104 10096 10087 10081 10075
9965 9971 9977 9984 9991 9996 10001 10007 10013 10018 10025 10031 10039 10046 10050 10055 10061 10068 10075 10081 10087 10092 10096 10101 10106 10111 10115 10119 10122 10125 10129 10132 10134 10135 10136 10137 10137 10137 10136 10134 10132 10130 10128 10124 10120 10114 10108 10103 10096 10089 10082 10075 10067 10060
9966 9972 9979 9985 9991 9997 10002 10007 10012 10018 10025 10032 10037 10041 10047 10053 10060 10067 10074 10080 10085 10090 10095 10101 10106 10110 10114 10118 10121 10125 10129 10132 10133 10134 10134 10134 10134 10133 10131 10129 10127 10124 10120 10115 10109 10103 10096 10090 10081 10073 10063 10056 10049 10042
9969 9975 9980 9985 9990 9996 10003 10010 10015 10020 10024 10030 10035 10041 10047 10054 10060 10067 10073 10079 10085 10090 10096 10101 10106 10110 10114 10117 10121 10125 10128 10131 10132 10132 10132 10131 10130 10129 10126 10123 10119 10114 10109 10103 10096 10088 10081 10073 10066 10058 10050 10040 10033 10025
9969 9975 9981 9987 9993 10000 10005 10010 10016 10021 10026 10031 10037 10043 10049 10055 10062 10067 10073 10079 10085 10092 10096 10101 10106 10110 10115 10117 10120 10124 10127 10129 10130 10129 10129 10128 10126 10123 10120 10116 10111 10106 10099 10093 10086 10077 10068 10059 10051 10043 10035 10026 10016 10008
9976 9980 9985 9990 9996 10001 10006 10011 10017 10023 10028 10033 10039 10045 10051 10057 10063 10069 10074 10081 10087 10092 10098 10102 10106 10110 10114 10117 10120 10123 10125 10126 10127 10127 10125 10123 10120 10116 10112 10107 10102 10096 10088 10080 10071 10062 10053 10044 10035 10026 10018 10010 10001 9993
9981 9985 9989 9994 9999 10004 10010 10015 10020 10026 10031 10036 10041 10048 10054 10060 10065 10071 10077 10083 10088 10093 10098 10102 10105 10110 10114 10116 10119 10121 10123 10124 10124 10122 10120 10117 10114 10109 10104 10097 10092 10085 10076 10067 10059 10050 10041 10032 10022 10012 10003 9994 9986 9978
9985 9989 9994 9997 10002 10008 10013 10019 10024 10030 10035 10040 10046 10052 10057 10063 10068 10074 10079 10084 10089 10094 10098 10102 10105 10109 10112 10115 10117 10120 10121 10121 10119 10117 10114 10111 10107 10101 10095 10087 10080 10072 10064 10055 10046 10037 10027 10017 10008 9999 9990 9981 9973 9965
9991 9995 9999 10002 10007 10012 10017 10021 10026 10032 10039 10044 10050 10055 10059 10065 10070 10075 10079 10085 10090 10094 10097 10101 10104 10108 10111 10113 10115 10117 10117 10115 10113 10110 10107 10103 10099 10093 10086 10077 10067 10058 10050 10041 10032 10023 10014 10005 9995 9986 9978 9969 9961 9952
9994 9998 10002 10006 10010 10015 10020 10025 10030 10034 10039 10044 10049 10054 10060 10065 10070 10075 10080 10085 10090 10094 10097 10101 10104 10107 10109 10112 10113 10113 10112 10110 10107 10103 10100 10096 10090 10084 10076 10069 10061 10052 10042 10031 10021 10011 10002 9992 9983 9973 9964 9957 9949 9941
9999 10002 10005 10009 10013 10017 10022 10027 10031 10036 10041 10046 10051 10055 10060 10065 10071 10076 10081 10086 10091 10094 10098 10101 10104 10106 10108 10109 10109 10108 10106 10103 10101 10097 10092 10087 10080 10073 10066 10057 10048 10039 10029 10019 10009 9999 9990 9980 9971 9962 9953 9945 9938 9931
10004 10007 10010 10014 10019 10023 10027 10031 10036 10042 10046 10051 10055 10060 10065 10070 10075 10079 10084 10088 10092 10095 10098 10100 10103 10104 10105 10106 10105 10103 10100 10097 10094 10089 10084 10078 10070 10062 10053 10045 10035 10026 10015 10005 9995 9986 9977 9968 9960 9952 9943 9934 9927 9921
10011 10014 10017 10021 10025 10029 10034 10039 10043 10046 10051 10056 10061 10066 10071 10075 10078 10082 10086 10089 10092 10095 10097 10100 10101 10102 10102 10101 10099 10097 10094 10090 10086 10080 10073 10066 10058 10050 10041 10032 10023 10013 10003 9994 9985 9975 9966 9957 9949 9941 9933 9925 9917 9910
10015 10019 10023 10027 10030 10034 10038 10042 10046 10051 10057 10061 10066 10070 10073 10077 10080 10084 10087 10090 10092 10095 10097 10098 10098 10098 10097 10096 10094 10091 10087 10082 10077 10071 10064 10056 10048 10039 10030 10021 10011 10002 9992 9982 9973 9964 9955 9947 9939 9931 9923 9915 9908 9900
10021 10025 10029 10032 10036 10040 10044 10048 10053 10058 10062 10066 10069 10073 10076 10079 10082 10085 10088 10090 10092 10093 10094 10094 10093 10093 10091 10089 10086 10083 10078 10073 10067 10060 10053 10045 10037 10028 10018 10009 9999 9990 9981 9972 9963 9954 9946 9937 9929 9921 9913 9905 9898 9890
10027 10030 10034 10038 10041 10045 10049 10054 10058 10062 10065 10069 10072 10075 10078 10081 10083 10085 10087 10089 10089 10090 10090 10089 10088 10086 10084 10081 10078 10074 10069 10063 10056 10050 10042 10033 10024 10015 10006 9996 9987 9978 9969 9961 9953 9944 9936 9928 9921 9913 9905 9897 9889 9881